CW0181 Weather Reports


time (UTC)temp
F
wind
direction
speed
knots
gust
knots
rain 1hr
in
rain 24hr
in
rain mn
in
humidity
%
barometer
mb
20260507033604 65 281 2.6 6.1 0.00 0.00 0.00 77 1016.9
20260507032107 64 4 1.7 2.6 0.00 0.00 0.00 75 1016.8
20260507031605 64 352 0.9 2.6 0.00 0.00 0.00 75 1016.6
20260507031104 64 354 0.9 4.3 0.00 0.00 0.00 77 1016.6
20260507030604 64 355 1.7 2.6 0.00 0.00 0.00 77 1016.5
20260507025604 65 261 0.9 2.6 0.00 0.00 0.00 80 1016.5
20260507025105 65 257 0.9 4.3 0.00 0.00 0.00 80 1016.5
20260507024604 65 244 3.5 6.1 0.00 0.00 0.00 78 1016.5
20260507023604 64 293 1.7 7.0 0.00 0.00 0.00 81 1016.3
20260507023103 64 265 3.5 5.2 0.00 0.00 0.00 81 1016.2
20260507022604 64 266 3.5 5.2 0.00 0.00 0.00 82 1016.3
20260507022104 64 266 4.3 7.0 0.00 0.00 0.00 82 1016.2
20260507021604 64 267 5.2 7.8 0.00 0.00 0.00 82 1016.1
20260507021105 64 257 6.1 8.7 0.00 0.00 0.00 82 1016.1
20260507020604 64 260 6.1 7.8 0.00 0.00 0.00 82 1016.1
20260507020105 64 266 6.1 8.7 0.00 0.00 0.00 83 1016.0
20260507015604 64 255 6.1 8.7 0.00 0.00 0.00 83 1016.1
20260507015104 64 260 6.1 8.7 0.00 0.00 0.00 84 1016.0
20260507014604 64 255 7.0 10.4 0.00 0.00 0.00 84 1016.0
20260507014104 64 263 7.0 10.4 0.00 0.00 0.00 84 1015.9
20260507013604 65 249 7.0 10.4 0.00 0.00 0.00 84 1015.9
20260507012104 64 263 7.0 10.4 0.00 0.00 0.00 84 1015.8
20260507011604 64 262 7.0 10.4 0.00 0.00 0.00 84 1015.8
20260507011104 64 259 8.7 11.3 0.00 0.00 0.00 84 1015.8
20260507010105 65 261 7.8 13.0 0.00 0.00 0.00 85 1015.6
20260507005604 65 254 7.8 12.2 0.00 0.00 0.00 85 1015.6
20260507005104 65 258 8.7 12.2 0.00 0.00 0.00 85 1015.6
20260507004604 65 262 9.6 13.9 0.00 0.00 0.00 85 1015.6
20260507004104 65 256 9.6 14.8 0.00 0.00 0.00 85 1015.6
20260507003604 65 254 9.6 13.9 0.00 0.00 0.00 85 1015.7
20260507003105 65 258 11.3 15.6 0.00 0.00 0.00 84 1015.7
20260507002604 65 254 11.3 14.8 0.00 0.00 0.00 84 1015.6
20260507001103 65 253 11.3 15.6 0.00 0.00 0.00 83 1015.6
20260507000604 65 259 12.2 14.8 0.00 0.00 0.00 83 1015.5
20260507000105 65 256 10.4 13.9 0.00 0.00 0.00 82 1015.5
20260506235603 65 259 9.6 15.6 0.00 0.00 0.00 82 1015.6
20260506235104 65 254 9.6 13.0 0.00 0.00 0.00 82 1015.6
20260506234604 65 261 10.4 14.8 0.00 0.00 0.00 82 1015.6
20260506234104 65 257 11.3 13.9 0.00 0.00 0.00 82 1015.5
20260506233604 65 260 8.7 14.8 0.00 0.00 0.00 83 1015.6
20260506233104 65 262 10.4 14.8 0.00 0.00 0.00 83 1015.6
20260506232604 65 257 11.3 14.8 0.00 0.00 0.00 82 1015.5
20260506232104 65 260 10.4 17.4 0.00 0.00 0.00 82 1015.6
20260506231604 65 258 10.4 14.8 0.00 0.00 0.00 81 1015.7
20260506231104 65 259 10.4 13.0 0.00 0.00 0.00 81 1015.8
20260506230604 65 259 11.3 13.9 0.00 0.00 0.00 81 1015.8
20260506230104 65 256 10.4 13.9 0.00 0.00 0.00 81 1015.9
20260506225604 66 259 11.3 13.9 0.00 0.00 0.00 81 1015.9
20260506225104 66 260 10.4 13.9 0.00 0.00 0.00 82 1016.0
20260506224604 65 260 10.4 14.8 0.00 0.00 0.00 81 1016.1
20260506224103 65 255 10.4 13.9 0.00 0.00 0.00 82 1016.2
20260506223604 65 253 10.4 14.8 0.00 0.00 0.00 83 1016.3
20260506223104 65 256 10.4 13.9 0.00 0.00 0.00 83 1016.4
20260506222604 65 256 10.4 15.6 0.00 0.00 0.00 83 1016.4
20260506222104 65 257 10.4 13.0 0.00 0.00 0.00 82 1016.4
20260506221604 65 256 10.4 12.2 0.00 0.00 0.00 82 1016.5
20260506221104 65 252 10.4 12.2 0.00 0.00 0.00 81 1016.5
20260506220604 66 255 9.6 12.2 0.00 0.00 0.00 81 1016.7
20260506215604 66 261 8.7 13.0 0.00 0.00 0.00 81 1016.9
20260506215104 66 256 9.6 12.2 0.00 0.00 0.00 80 1016.9
20260506214104 66 257 8.7 12.2 0.00 0.00 0.00 79 1017.0
20260506213604 66 258 10.4 12.2 0.00 0.00 0.00 79 1017.0
20260506212604 66 261 8.7 11.3 0.00 0.00 0.00 78 1017.1
20260506212104 66 256 8.7 12.2 0.00 0.00 0.00 78 1017.2
20260506211604 66 254 8.7 11.3 0.00 0.00 0.00 77 1017.2
20260506211105 66 254 8.7 11.3 0.00 0.00 0.00 76 1017.2
20260506210104 66 248 7.8 10.4 0.00 0.00 0.00 77 1017.4
20260506205604 66 246 7.0 10.4 0.00 0.00 0.00 77 1017.4
20260506205104 66 251 6.1 10.4 0.00 0.00 0.00 78 1017.5
20260506204604 66 250 7.8 10.4 0.00 0.00 0.00 77 1017.5
20260506203604 66 257 7.0 11.3 0.00 0.00 0.00 78 1017.5
20260506203103 66 248 7.8 10.4 0.00 0.00 0.00 78 1017.6
20260506202104 66 260 7.0 11.3 0.00 0.00 0.00 77 1017.7
20260506201603 66 256 7.8 10.4 0.00 0.00 0.00 77 1017.8
20260506200604 67 243 7.0 11.3 0.00 0.00 0.00 76 1017.9
20260506200104 67 249 6.1 10.4 0.00 0.00 0.00 77 1017.9
20260506195604 66 247 6.1 10.4 0.00 0.00 0.00 77 1018.0
20260506195104 66 246 7.8 10.4 0.00 0.00 0.00 76 1018.1
20260506194605 66 256 5.2 10.4 0.00 0.00 0.00 78 1018.1
20260506194104 66 243 6.1 10.4 0.00 0.00 0.00 77 1018.1
20260506193604 66 246 7.0 10.4 0.00 0.00 0.00 76 1018.2
20260506193104 66 240 5.2 10.4 0.00 0.00 0.00 77 1018.2
20260506192104 66 254 5.2 10.4 0.00 0.00 0.00 77 1018.3
20260506191605 66 236 6.1 10.4 0.00 0.00 0.00 76 1018.3
20260506191105 66 190 4.3 8.7 0.00 0.00 0.00 78 1018.4
20260506190605 66 217 6.1 10.4 0.00 0.00 0.00 78 1018.4
20260506190106 66 231 5.2 8.7 0.00 0.00 0.00 79 1018.5
20260506185105 66 239 6.1 10.4 0.00 0.00 0.00 79 1018.6
20260506184106 66 247 5.2 10.4 0.00 0.00 0.00 79 1018.7
20260506183605 66 225 4.3 8.7 0.00 0.00 0.00 79 1018.7
20260506182605 66 242 3.5 7.0 0.00 0.00 0.00 80 1018.8
20260506182105 65 171 5.2 10.4 0.00 0.00 0.00 79 1018.7
20260506181605 65 178 5.2 8.7 0.00 0.00 0.00 79 1018.8
20260506181105 65 197 5.2 8.7 0.00 0.00 0.00 79 1018.8
20260506180605 65 242 6.1 10.4 0.00 0.00 0.00 79 1018.7
20260506180105 65 248 6.1 8.7 0.00 0.00 0.00 79 1018.7
20260506175605 65 242 4.3 10.4 0.00 0.00 0.00 78 1018.8
20260506175105 65 203 5.2 10.4 0.00 0.00 0.00 78 1018.7
20260506174605 65 230 5.2 8.7 0.00 0.00 0.00 78 1018.8
20260506174105 65 210 3.5 8.7 0.00 0.00 0.00 79 1018.8
20260506173106 65 209 4.3 8.7 0.00 0.00 0.00 78 1018.6
20260506172105 65 234 6.1 10.4 0.00 0.00 0.00 77 1018.7
20260506171605 65 227 4.3 7.8 0.00 0.00 0.00 77 1018.7
20260506170605 65 210 4.3 7.0 0.00 0.00 0.00 78 1018.7
20260506170105 65 228 3.5 7.0 0.00 0.00 0.00 77 1018.6
20260506165105 65 243 5.2 8.7 0.00 0.00 0.00 77 1018.6
20260506164605 64 251 3.5 7.8 0.00 0.00 0.00 78 1018.6
20260506164105 65 238 2.6 7.0 0.00 0.00 0.00 77 1018.6
20260506163605 65 237 3.5 6.1 0.00 0.00 0.00 77 1018.6
20260506162604 64 227 3.5 6.1 0.00 0.00 0.00 77 1018.5
20260506162104 64 215 2.6 7.0 0.00 0.00 0.00 77 1018.5
20260506161604 64 248 4.3 6.1 0.00 0.00 0.00 76 1018.4
20260506161105 64 227 3.5 7.0 0.00 0.00 0.00 76 1018.5
20260506155105 65 122 2.6 5.2 0.00 0.00 0.00 74 1018.6
20260506154604 65 100 1.7 2.6 0.00 0.00 0.00 76 1018.7
20260506154104 64 100 0.9 2.6 0.00 0.00 0.00 76 1018.6
20260506153605 64 99 1.7 5.2 0.00 0.01 0.00 77 1018.6
20260506153105 64 113 2.6 6.1 0.00 0.01 0.00 76 1018.6
20260506152105 63 98 2.6 2.6 0.00 0.01 0.00 77 1018.6
20260506151605 63 100 2.6 5.2 0.00 0.01 0.00 78 1018.7
20260506151104 63 87 2.6 4.3 0.00 0.01 0.00 78 1018.7
20260506144605 60 83 1.7 2.6 0.00 0.01 0.00 80 1018.6
20260506144104 60 81 2.6 2.6 0.00 0.01 0.00 81 1018.6
20260506143604 60 81 1.7 4.3 0.00 0.01 0.00 81 1018.6
20260506143105 59 78 4.3 6.1 0.00 0.01 0.00 81 1018.6
20260506142604 59 83 4.3 4.3 0.00 0.01 0.00 81 1018.5
20260506141605 59 82 2.6 5.2 0.00 0.01 0.00 83 1018.4
20260506141106 58 93 1.7 5.2 0.00 0.01 0.00 84 1018.4
20260506140604 58 86 2.6 2.6 0.00 0.01 0.00 85 1018.4
20260506140105 58 87 2.6 5.2 0.00 0.01 0.00 85 1018.4
20260506135605 58 96 1.7 2.6 0.00 0.01 0.00 86 1018.3
20260506135105 57 97 2.6 5.2 0.00 0.01 0.00 86 1018.4
20260506134104 57 101 1.7 2.6 0.00 0.01 0.00 86 1018.3
20260506133605 57 205 1.7 2.6 0.00 0.01 0.00 87 1018.2
20260506133106 56 206 0.9 2.6 0.00 0.01 0.00 87 1018.2
20260506132605 56 227 0.9 2.6 0.00 0.01 0.00 87 1018.1
20260506132105 56 228 1.7 2.6 0.00 0.01 0.00 87 1018.1
20260506131605 56 228 0.9 1.7 0.00 0.01 0.00 87 1018.0
20260506130604 56 228 1.7 2.6 0.00 0.01 0.00 86 1017.9
20260506125605 56 228 0.9 1.7 0.00 0.01 0.00 87 1017.8
20260506125105 56 228 1.7 2.6 0.00 0.01 0.00 87 1017.8
20260506124604 56 228 1.7 2.6 0.00 0.01 0.00 87 1017.7
20260506124105 56 228 0.9 1.7 0.00 0.01 0.00 87 1017.7
20260506123604 56 228 0.9 1.7 0.00 0.01 0.00 87 1017.7
20260506123105 56 228 0.9 1.7 0.00 0.01 0.00 87 1017.6
20260506122105 56 228 0.9 1.7 0.00 0.01 0.00 87 1017.6
20260506121605 56 228 0.9 2.6 0.00 0.01 0.00 87 1017.5
20260506121105 56 228 0.9 1.7 0.00 0.01 0.00 87 1017.5
20260506120605 56 228 1.7 2.6 0.00 0.01 0.00 88 1017.5
20260506115605 56 228 0.9 2.6 0.00 0.01 0.00 88 1017.5
20260506115104 57 228 0.9 2.6 0.00 0.01 0.00 88 1017.5
20260506114605 57 228 1.7 2.6 0.00 0.01 0.00 89 1017.5
20260506114105 57 237 1.7 2.6 0.00 0.01 0.00 89 1017.5
20260506113604 57 237 1.7 2.6 0.00 0.01 0.00 89 1017.4
20260506113105 57 237 1.7 2.6 0.00 0.01 0.00 89 1017.4
20260506112105 58 238 1.7 2.6 0.00 0.01 0.00 88 1017.3
20260506111605 58 238 1.7 2.6 0.00 0.01 0.00 88 1017.3
20260506111105 58 238 1.7 2.6 0.00 0.01 0.00 88 1017.2
20260506110604 59 239 1.7 2.6 0.00 0.01 0.00 88 1017.3
20260506110104 59 241 0.0 0.9 0.00 0.01 0.00 87 1017.3
20260506105604 59 241 0.9 1.7 0.00 0.01 0.00 87 1017.3
20260506105105 59 241 0.0 0.9 0.00 0.01 0.00 87 1017.3
20260506104604 59 241 0.0 1.7 0.00 0.01 0.00 87 1017.3
20260506104104 60 241 0.9 1.7 0.00 0.01 0.00 87 1017.4
20260506103604 60 241 1.7 2.6 0.00 0.01 0.00 87 1017.3
20260506103105 60 241 1.7 2.6 0.00 0.01 0.00 87 1017.3
20260506102105 60 241 1.7 2.6 0.00 0.01 0.00 87 1017.3
20260506101605 60 241 2.6 4.3 0.00 0.01 0.00 88 1017.3
20260506100604 60 241 2.6 4.3 0.00 0.01 0.00 88 1017.3
20260506100105 60 240 2.6 4.3 0.00 0.01 0.00 88 1017.3
20260506095604 60 239 2.6 4.3 0.00 0.01 0.00 88 1017.3
20260506095104 60 239 3.5 5.2 0.00 0.01 0.00 88 1017.3
20260506094604 60 235 2.6 5.2 0.00 0.01 0.00 88 1017.4
20260506094104 60 235 2.6 4.3 0.00 0.01 0.00 88 1017.4
20260506093605 60 216 1.7 4.3 0.00 0.01 0.00 88 1017.5
20260506093104 60 229 2.6 5.2 0.00 0.01 0.00 88 1017.4
20260506092604 60 235 3.5 6.1 0.00 0.01 0.00 88 1017.5
20260506092104 60 237 3.5 5.2 0.00 0.01 0.00 88 1017.4
20260506091604 60 241 3.5 6.1 0.00 0.01 0.00 88 1017.4
20260506091104 60 241 4.3 5.2 0.00 0.01 0.00 88 1017.5
20260506090605 60 230 4.3 6.1 0.00 0.02 0.00 88 1017.5
20260506090105 60 246 2.6 6.1 0.00 0.03 0.00 88 1017.6
20260506085604 60 245 4.3 6.1 0.00 0.04 0.00 88 1017.6
20260506085105 60 245 3.5 6.1 0.00 0.05 0.00 88 1017.6
20260506084605 60 245 2.6 4.3 0.00 0.05 0.00 88 1017.6
20260506084105 60 245 1.7 2.6 0.00 0.05 0.00 88 1017.6
20260506083604 60 245 2.6 2.6 0.00 0.05 0.00 88 1017.7
20260506083105 60 245 2.6 4.3 0.00 0.05 0.00 88 1017.7
20260506082605 60 245 1.7 2.6 0.00 0.06 0.00 88 1017.8
20260506082105 60 245 1.7 2.6 0.00 0.06 0.00 88 1017.7
20260506081106 60 245 2.6 6.1 0.00 0.06 0.00 88 1017.8
20260506080605 60 248 3.5 6.1 0.00 0.06 0.00 88 1017.8
20260506080105 60 248 2.6 4.3 0.00 0.07 0.00 88 1017.8
20260506073104 60 248 2.6 4.3 0.00 0.07 0.00 87 1017.8
20260506072604 60 247 2.6 4.3 0.00 0.07 0.00 88 1017.7
20260506071604 61 248 2.6 4.3 0.00 0.07 0.00 88 1017.7
20260506070605 61 243 2.6 6.1 0.00 0.07 0.00 88 1017.7
20260506070105 61 239 2.6 2.6 0.00 0.07 0.00 88 1017.6
20260506062104 61 273 2.6 5.2 0.00 0.07 0.07 87 1017.3
20260506061604 61 279 1.7 2.6 0.00 0.07 0.07 87 1017.3
20260506061104 61 269 2.6 7.0 0.00 0.07 0.07 87 1017.3
20260506060605 61 287 2.6 6.1 0.00 0.07 0.07 87 1017.3
20260506060105 61 264 3.5 7.0 0.00 0.07 0.07 87 1017.2
20260506050604 61 276 4.3 7.0 0.00 0.07 0.07 87 1016.8
20260506050104 61 267 4.3 7.0 0.00 0.07 0.07 86 1016.8
20260506045104 61 281 2.6 5.2 0.00 0.07 0.07 86 1016.6
20260506044605 61 279 3.5 6.1 0.00 0.07 0.07 86 1016.5
20260506044104 61 279 4.3 6.1 0.00 0.07 0.07 86 1016.4
20260506043605 61 272 4.3 6.1 0.00 0.07 0.07 86 1016.4
20260506042604 61 262 5.2 7.8 0.00 0.07 0.07 86 1016.4
20260506042104 61 264 6.1 8.7 0.00 0.07 0.07 86 1016.3
20260506041605 61 261 6.1 10.4 0.00 0.07 0.07 86 1016.3
20260506040604 61 259 7.8 10.4 0.00 0.07 0.07 85 1016.2
20260506040104 61 262 6.1 8.7 0.00 0.07 0.07 85 1016.1
20260506035604 61 259 6.1 8.7 0.00 0.07 0.07 85 1016.0
20260506035104 61 261 7.8 10.4 0.00 0.07 0.07 85 1015.9
20260506034604 61 258 7.0 10.4 0.00 0.07 0.07 84 1015.8
20260506034104 62 257 6.1 8.7 0.00 0.07 0.07 84 1015.8